• In Netherlands
  • List of Countries
  • For 7 days
  • Water Temperature
  • Satellite Maps
  • Weather Map
  • Weather Widgets
  • user-avatar
    Login

    Hourly Weather Parakou

    Today, 29 March, Wednesday

    Time Temperature Precipitation Wind Pressure Humidity
    00:00 +30°C° 0 mm 2 mps 726 mmHg 52%
    01:00 +29°C° 0 mm 2 mps 726 mmHg 60%
    02:00 +29°C° 0 mm 2 mps 725 mmHg 68%
    03:00 +28°C° 0 mm 2 mps 725 mmHg 76%
    04:00 +27°C° 0 mm 2 mps 725 mmHg 80%
    05:00 +27°C° 0 mm 2 mps 726 mmHg 83%
    06:00 +26°C° 0 mm 2 mps 726 mmHg 87%
    07:00 +28°C° 0 mm 2 mps 726 mmHg 77%
    08:00 +31°C° 0 mm 2 mps 726 mmHg 66%
    09:00 +34°C° 0 mm 2 mps 727 mmHg 56%
    10:00 +37°C° 0 mm 1 mps 727 mmHg 44%
    11:00 +41°C° 0 mm 1 mps 726 mmHg 33%
    12:00 +42°C° 0 mm 0 mps 726 mmHg 21%
    13:00 +42°C° 0 mm 0 mps 725 mmHg 19%
    14:00 +42°C° 0 mm 0 mps 724 mmHg 17%
    15:00 +42°C° 0 mm 0 mps 723 mmHg 15%
    16:00 +42°C° 0 mm 1 mps 723 mmHg 18%
    17:00 +40°C° 0 mm 1 mps 723 mmHg 20%
    18:00 +37°C° 0 mm 2 mps 723 mmHg 23%
    19:00 +36°C° 0 mm 2 mps 723 mmHg 26%
    20:00 +34°C° 0 mm 2 mps 724 mmHg 30%
    21:00 +32°C° 0 mm 2 mps 725 mmHg 33%
    22:00 +32°C° 0 mm 2 mps 725 mmHg 37%
    23:00 +31°C° 0 mm 2 mps 725 mmHg 41%

    Tomorrow, 30 March, Thursday

    Time Temperature Precipitation Wind Pressure Humidity
    00:00 +30°C° 0 mm 2 mps 726 mmHg 45%
    01:00 +30°C° 0 mm 2 mps 725 mmHg 53%
    02:00 +29°C° 0 mm 3 mps 725 mmHg 61%
    03:00 +28°C° 0 mm 3 mps 725 mmHg 69%
    04:00 +28°C° 0 mm 3 mps 725 mmHg 74%
    05:00 +27°C° 0 mm 2 mps 725 mmHg 79%
    06:00 +26°C° 0 mm 2 mps 725 mmHg 84%
    07:00 +29°C° 0 mm 2 mps 726 mmHg 74%
    08:00 +31°C° 0 mm 2 mps 727 mmHg 64%
    09:00 +34°C° 0 mm 2 mps 727 mmHg 54%
    10:00 +37°C° 0 mm 2 mps 727 mmHg 44%
    11:00 +40°C° 0 mm 1 mps 727 mmHg 34%
    12:00 +43°C° 0 mm 1 mps 726 mmHg 24%
    13:00 +44°C° 0 mm 1 mps 725 mmHg 20%
    14:00 +45°C° 0 mm 1 mps 725 mmHg 17%
    15:00 +42°C° 0 mm 0 mps 724 mmHg 14%
    16:00 +43°C° 0 mm 1 mps 724 mmHg 16%
    17:00 +40°C° 0 mm 1 mps 724 mmHg 19%
    18:00 +37°C° 0 mm 2 mps 724 mmHg 21%
    19:00 +36°C° 0 mm 2 mps 724 mmHg 25%
    20:00 +35°C° 0 mm 2 mps 725 mmHg 28%
    21:00 +33°C° 0 mm 3 mps 726 mmHg 32%
    22:00 +33°C° 0 mm 3 mps 726 mmHg 44%
    23:00 +32°C° 0 mm 4 mps 726 mmHg 57%

    Day after tomorrow, 31 March, Friday

    Time Temperature Precipitation Wind Pressure Humidity
    00:00 +30°C° 0 mm 4 mps 726 mmHg 70%
    01:00 +29°C° 0 mm 4 mps 726 mmHg 72%
    02:00 +29°C° 0 mm 4 mps 725 mmHg 75%
    03:00 +28°C° 0 mm 4 mps 725 mmHg 77%
    04:00 +28°C° 0 mm 3 mps 725 mmHg 80%
    05:00 +27°C° 0 mm 3 mps 725 mmHg 82%
    06:00 +27°C° 0 mm 2 mps 726 mmHg 84%
    07:00 +28°C° 0 mm 3 mps 726 mmHg 76%
    08:00 +30°C° 0 mm 3 mps 727 mmHg 68%
    09:00 +33°C° 0 mm 3 mps 728 mmHg 61%
    10:00 +35°C° 0 mm 3 mps 727 mmHg 51%
    11:00 +38°C° 0 mm 2 mps 727 mmHg 42%
    12:00 +40°C° 0 mm 2 mps 726 mmHg 32%
    13:00 +42°C° 0 mm 1 mps 725 mmHg 28%
    14:00 +43°C° 0 mm 1 mps 724 mmHg 23%
    15:00 +42°C° 0 mm 0 mps 724 mmHg 19%
    16:00 +42°C° 0 mm 1 mps 724 mmHg 22%
    17:00 +40°C° 0 mm 2 mps 724 mmHg 25%
    18:00 +38°C° 0 mm 2 mps 724 mmHg 28%
    19:00 +36°C° 0 mm 3 mps 725 mmHg 34%
    20:00 +35°C° 0 mm 4 mps 725 mmHg 39%
    21:00 +34°C° 0 mm 4 mps 726 mmHg 45%
    22:00 +33°C° 0.2 mm 4 mps 726 mmHg 53%
    23:00 +32°C° 0.2 mm 4 mps 726 mmHg 61%

    1 April, Saturday

    Time Temperature Precipitation Wind Pressure Humidity
    00:00 +30°C° 0.2 mm 4 mps 726 mmHg 70%
    01:00 +29°C° 0 mm 4 mps 726 mmHg 72%
    02:00 +28°C° 0 mm 4 mps 725 mmHg 74%
    03:00 +28°C° 0 mm 3 mps 725 mmHg 77%
    04:00 +27°C° 0 mm 3 mps 725 mmHg 78%
    05:00 +27°C° 0 mm 3 mps 725 mmHg 80%
    06:00 +27°C° 0 mm 3 mps 725 mmHg 81%
    07:00 +28°C° 0 mm 3 mps 726 mmHg 75%
    08:00 +30°C° 0 mm 4 mps 727 mmHg 69%
    09:00 +32°C° 0 mm 4 mps 727 mmHg 62%
    10:00 +34°C° 0 mm 4 mps 727 mmHg 56%
    11:00 +36°C° 0 mm 4 mps 726 mmHg 50%
    12:00 +37°C° 0 mm 3 mps 726 mmHg 44%
    13:00 +38°C° 0 mm 3 mps 725 mmHg 40%
    14:00 +39°C° 0 mm 2 mps 724 mmHg 36%
    15:00 +40°C° 0 mm 2 mps 723 mmHg 32%
    16:00 +38°C° 0.3 mm 2 mps 724 mmHg 37%
    17:00 +37°C° 0.3 mm 3 mps 724 mmHg 42%
    18:00 +35°C° 0.3 mm 4 mps 724 mmHg 48%
    19:00 +33°C° 0.8 mm 4 mps 725 mmHg 55%
    20:00 +32°C° 0.8 mm 4 mps 726 mmHg 62%
    21:00 +30°C° 0.8 mm 3 mps 726 mmHg 68%
    22:00 +29°C° 0 mm 3 mps 726 mmHg 70%
    23:00 +29°C° 0 mm 3 mps 726 mmHg 72%

    2 April, Sunday

    Time Temperature Precipitation Wind Pressure Humidity
    00:00 +29°C° 0 mm 3 mps 726 mmHg 73%
    01:00 +28°C° 0 mm 3 mps 725 mmHg 75%
    02:00 +28°C° 0 mm 3 mps 725 mmHg 77%
    03:00 +28°C° 0 mm 3 mps 725 mmHg 78%
    04:00 +27°C° 0 mm 3 mps 725 mmHg 79%
    05:00 +27°C° 0 mm 3 mps 725 mmHg 80%
    06:00 +27°C° 0 mm 2 mps 726 mmHg 81%
    07:00 +28°C° 0 mm 3 mps 726 mmHg 73%
    08:00 +30°C° 0 mm 3 mps 727 mmHg 66%
    09:00 +33°C° 0 mm 3 mps 727 mmHg 58%
    10:00 +35°C° 0 mm 3 mps 727 mmHg 51%
    11:00 +37°C° 0 mm 3 mps 726 mmHg 43%
    12:00 +39°C° 0 mm 2 mps 726 mmHg 36%
    13:00 +39°C° 0 mm 3 mps 725 mmHg 34%
    14:00 +40°C° 0 mm 3 mps 724 mmHg 32%
    15:00 +40°C° 0 mm 3 mps 724 mmHg 30%
    16:00 +38°C° 0.4 mm 3 mps 724 mmHg 35%
    17:00 +36°C° 0.4 mm 3 mps 724 mmHg 40%
    18:00 +35°C° 0.4 mm 3 mps 725 mmHg 44%
    19:00 +33°C° 1.7 mm 3 mps 725 mmHg 54%
    20:00 +30°C° 1.7 mm 2 mps 726 mmHg 64%
    21:00 +29°C° 1.7 mm 2 mps 726 mmHg 74%
    22:00 +28°C° 0.4 mm 2 mps 726 mmHg 75%
    23:00 +28°C° 0.4 mm 2 mps 726 mmHg 77%

    3 April, Monday

    Time Temperature Precipitation Wind Pressure Humidity
    00:00 +28°C° 0.4 mm 2 mps 726 mmHg 79%
    01:00 +28°C° 0.1 mm 2 mps 726 mmHg 79%
    02:00 +27°C° 0.1 mm 2 mps 726 mmHg 80%
    03:00 +27°C° 0.1 mm 2 mps 725 mmHg 81%
    04:00 +27°C° 0 mm 2 mps 726 mmHg 81%
    05:00 +27°C° 0 mm 2 mps 726 mmHg 82%
    06:00 +27°C° 0 mm 2 mps 726 mmHg 82%
    07:00 +28°C° 0 mm 2 mps 727 mmHg 74%
    08:00 +30°C° 0 mm 3 mps 727 mmHg 66%
    09:00 +31°C° 0 mm 3 mps 728 mmHg 59%
    10:00 +35°C° 0 mm 2 mps 727 mmHg 50%
    11:00 +38°C° 0 mm 2 mps 727 mmHg 41%
    12:00 +40°C° 0 mm 1 mps 726 mmHg 32%
    13:00 +40°C° 0 mm 1 mps 726 mmHg 32%
    14:00 +39°C° 0 mm 1 mps 725 mmHg 32%
    15:00 +39°C° 0 mm 1 mps 724 mmHg 32%
    16:00 +36°C° 0 mm 1 mps 724 mmHg 36%
    17:00 +35°C° 0 mm 1 mps 725 mmHg 39%
    18:00 +34°C° 0 mm 1 mps 725 mmHg 42%
    19:00 +33°C° 0 mm 1 mps 725 mmHg 45%
    20:00 +32°C° 0 mm 1 mps 725 mmHg 48%
    21:00 +31°C° 0 mm 1 mps 726 mmHg 51%
    22:00 +31°C° 0 mm 1 mps 726 mmHg 52%
    23:00 +31°C° 0 mm 1 mps 725 mmHg 53%
    Show more